Weather History for KMRN - February, 2014

Change the Weather History Date:

Sunday, February 9, 2014

  Actual Average (KHKY) Record (KHKY)
Temperature  
Mean Temperature 42 °F -  
Max Temperature 57 °F 47 °F 69 °F (1991)
Min Temperature 28 °F 26 °F 14 °F (1958)
Degree Days  
Heating Degree Days 22    
Moisture  
Dew Point 32 °F    
Average Humidity 69    
Maximum Humidity 99    
Minimum Humidity 42    
Precipitation  
Precipitation 0.00 in - - ()
Sea Level Pressure  
Sea Level Pressure 30.09 in    
Wind  
Wind Speed 3 mph (West)    
Max Wind Speed 13 mph    
Max Gust Speed 20 mph    
Visibility 9 miles    
Events      
Averages and records for this station are not official NWS values.
T = Trace of Precipitation, MM = Missing Value Source: NWS Daily Summary

Daily Weather History Graph

Daily Weather History Graph

Search for Another Location

Airport or City:

Trip Planner

Search our weather history database for the weather conditions in past years. The results will help you decide how hot, cold, wet, or windy it might be!

Date:

Astronomy

Feb. 09, 2014 Rise Set
Actual Time 7:19 AM EST 6:02 PM EST
Civil Twilight 6:53 AM EST 6:28 PM EST
Nautical Twilight 6:23 AM EST 6:58 PM EST
Astronomical Twilight 5:53 AM EST 7:28 PM EST
Moon 1:44 PM EST (2/9) 3:20 AM EST (2/9)
Length of Visible Light 11h 35m
Length of Day
10h 42m
Waxing Gibbous, 77% of the Moon is Illuminated
Feb 9
Waxing Gibbous
Feb 14
Full
Feb 22
Last Quarter
Mar 1
New
Mar 8
First Quarter

Hourly Weather History & Observations

Time (EST) Temp. Windchill Dew Point Humidity Pressure Visibility Wind Dir Wind Speed Gust Speed Precip Events Conditions
12:15 AM 36.0 °F 32.1 °F 32.2 °F 86% 30.18 in 10.0 mi NNW 4.6 mph - N/A   Overcast
12:35 AM 36.0 °F 33.3 °F 32.0 °F 86% 30.17 in 10.0 mi North 3.5 mph - N/A   Overcast
12:55 AM 36.9 °F - 32.0 °F 83% 30.17 in 10.0 mi Calm Calm - N/A   Overcast
1:15 AM 36.5 °F - 32.0 °F 84% 30.18 in 10.0 mi Calm Calm - N/A   Overcast
1:35 AM 35.4 °F - 32.0 °F 87% 30.17 in 10.0 mi Calm Calm - N/A   Overcast
1:55 AM 34.0 °F - 32.0 °F 92% 30.16 in 10.0 mi Calm Calm - N/A   Mostly Cloudy
2:15 AM 32.4 °F 27.9 °F 30.9 °F 94% 30.14 in 10.0 mi North 4.6 mph - N/A   Scattered Clouds
2:35 AM 33.3 °F - 28.9 °F 84% 30.13 in 10.0 mi Calm Calm - N/A   Scattered Clouds
2:55 AM 30.7 °F - 29.3 °F 94% 30.12 in 10.0 mi Calm Calm - N/A   Scattered Clouds
3:15 AM 30.4 °F - 29.7 °F 97% 30.12 in 7.0 mi Calm Calm - N/A   Scattered Clouds
3:35 AM 28.8 °F - 27.7 °F 96% 30.12 in 5.0 mi Calm Calm - N/A   Clear
3:55 AM 28.0 °F - 27.3 °F 97% 30.12 in 5.0 mi Calm Calm - N/A   Clear
4:15 AM 28.8 °F 25.0 °F 28.4 °F 99% 30.12 in 5.0 mi NNW 3.5 mph - N/A   Clear
4:35 AM 30.9 °F - 30.2 °F 97% 30.13 in 7.0 mi Calm Calm - N/A   Clear
4:55 AM 30.2 °F 26.7 °F 28.9 °F 95% 30.12 in 7.0 mi North 3.5 mph - N/A   Clear
5:15 AM 32.2 °F - 30.7 °F 94% 30.13 in 7.0 mi Calm Calm - N/A   Clear
5:35 AM 31.6 °F - 30.4 °F 95% 30.13 in 5.0 mi Calm Calm - N/A   Clear
5:55 AM 31.6 °F - 30.9 °F 97% 30.13 in 7.0 mi Calm Calm - N/A   Clear
6:15 AM 32.0 °F - 31.1 °F 96% 30.12 in 7.0 mi Calm Calm - N/A   Clear
6:35 AM 30.6 °F - 28.8 °F 93% 30.12 in 7.0 mi Calm Calm - N/A   Clear
6:55 AM 30.2 °F - 29.3 °F 96% 30.12 in 5.0 mi Calm Calm - N/A   Clear
7:15 AM 30.4 °F 26.9 °F 29.8 °F 98% 30.11 in 5.0 mi East 3.5 mph - N/A   Clear
7:35 AM 30.6 °F - 29.7 °F 96% 30.12 in 5.0 mi Calm Calm - N/A   Clear
7:55 AM 31.5 °F 26.8 °F 30.9 °F 98% 30.14 in 5.0 mi WNW 4.6 mph - N/A   Clear
8:15 AM 31.5 °F - 30.4 °F 96% 30.14 in 4.0 mi Calm Calm - N/A   Clear
8:35 AM 32.0 °F - 31.5 °F 98% 30.14 in 5.0 mi Calm Calm - N/A   Clear
8:55 AM 33.8 °F - 32.0 °F 93% 30.15 in 7.0 mi Calm Calm - N/A   Clear
9:15 AM 35.8 °F - 32.0 °F 86% 30.15 in 7.0 mi Calm Calm - N/A   Clear
9:35 AM 38.3 °F - 32.0 °F 78% 30.14 in 10.0 mi Calm Calm - N/A   Clear
9:55 AM 40.3 °F - 32.0 °F 72% 30.15 in 10.0 mi Calm Calm - N/A   Clear
10:15 AM 41.9 °F - 32.0 °F 68% 30.15 in 10.0 mi Calm Calm - N/A   Clear
10:35 AM 42.6 °F - 31.8 °F 66% 30.14 in 10.0 mi Calm Calm - N/A   Clear
10:55 AM 44.6 °F 43.1 °F 32.4 °F 62% 30.12 in 10.0 mi NW 3.5 mph - N/A   Clear
11:15 AM 46.6 °F - 32.2 °F 57% 30.10 in 10.0 mi Calm Calm - N/A   Clear
11:35 AM 48.0 °F - 32.5 °F 55% 30.10 in 10.0 mi Calm Calm - N/A   Scattered Clouds
11:55 AM 49.1 °F - 32.9 °F 54% 30.11 in 10.0 mi WSW 6.9 mph - N/A   Mostly Cloudy
12:15 PM 48.6 °F - 33.1 °F 55% 30.12 in 10.0 mi WSW 5.8 mph - N/A   Overcast
12:35 PM 50.4 °F - 33.3 °F 52% 30.09 in 10.0 mi South 6.9 mph - N/A   Mostly Cloudy
12:55 PM 51.8 °F - 33.8 °F 50% 30.07 in 10.0 mi South 10.4 mph 17.3 mph N/A   Scattered Clouds
1:15 PM 52.9 °F - 33.8 °F 48% 30.05 in 10.0 mi SSW 4.6 mph - N/A   Clear
1:35 PM 53.8 °F - 34.2 °F 47% 30.05 in 10.0 mi South 4.6 mph - N/A   Clear
1:55 PM 54.0 °F - 34.0 °F 47% 30.03 in 10.0 mi South 8.1 mph - N/A   Scattered Clouds
2:15 PM 53.1 °F - 34.2 °F 49% 30.02 in 10.0 mi West 5.8 mph - N/A   Mostly Cloudy
2:35 PM 53.8 °F - 34.5 °F 48% 30.01 in 10.0 mi WSW 4.6 mph - N/A   Overcast
2:55 PM 55.2 °F - 34.2 °F 45% 30.00 in 10.0 mi West 5.8 mph - N/A   Mostly Cloudy
3:15 PM 57.4 °F - 34.3 °F 42% 30.00 in 10.0 mi SW 5.8 mph 10.4 mph N/A   Mostly Cloudy
3:35 PM 57.2 °F - 34.3 °F 42% 29.99 in 10.0 mi South 5.8 mph - N/A   Mostly Cloudy
3:55 PM 56.8 °F - 34.0 °F 42% 29.99 in 10.0 mi SW 6.9 mph - N/A   Scattered Clouds
4:15 PM 56.7 °F - 34.2 °F 43% 29.99 in 10.0 mi SW 5.8 mph - N/A   Scattered Clouds
4:35 PM 56.8 °F - 34.0 °F 42% 29.97 in 10.0 mi SW 5.8 mph - N/A   Clear
4:55 PM 56.7 °F - 34.9 °F 44% 30.00 in 10.0 mi West 4.6 mph - N/A   Scattered Clouds
5:15 PM 56.3 °F - 35.1 °F 45% 30.01 in 10.0 mi WSW 4.6 mph - N/A   Overcast
5:35 PM 56.1 °F - 34.7 °F 45% 30.02 in 10.0 mi NNW 5.8 mph - N/A   Mostly Cloudy
5:55 PM 53.4 °F - 33.1 °F 46% 30.03 in 10.0 mi WNW 5.8 mph - N/A   Scattered Clouds
6:15 PM 51.8 °F - 33.4 °F 50% 30.05 in 10.0 mi West 6.9 mph - N/A   Clear
6:35 PM 51.3 °F - 32.9 °F 50% 30.06 in 10.0 mi WNW 6.9 mph - N/A   Scattered Clouds
6:55 PM 50.4 °F - 32.2 °F 50% 30.06 in 10.0 mi WNW 9.2 mph - N/A   Scattered Clouds
7:15 PM 50.0 °F - 32.2 °F 50% 30.06 in 10.0 mi WNW 6.9 mph - N/A   Clear
7:35 PM 50.2 °F - 32.0 °F 50% 30.06 in 10.0 mi WNW 8.1 mph 16.1 mph N/A   Clear
7:55 PM 49.6 °F - 32.0 °F 51% 30.07 in 10.0 mi WNW 12.7 mph 17.3 mph N/A   Clear
8:15 PM 49.1 °F - 32.0 °F 52% 30.07 in 10.0 mi West 8.1 mph - N/A   Clear
8:35 PM 49.1 °F - 32.0 °F 52% 30.07 in 10.0 mi WNW 6.9 mph - N/A   Clear
8:55 PM 48.7 °F - 32.2 °F 53% 30.09 in 10.0 mi WNW 12.7 mph 19.6 mph N/A   Clear
9:15 PM 47.8 °F - 32.4 °F 55% 30.09 in 10.0 mi West 3.5 mph - N/A   Clear
9:35 PM 46.4 °F - 32.2 °F 58% 30.10 in 10.0 mi Calm Calm - N/A   Scattered Clouds
9:55 PM 44.4 °F 42.9 °F 32.7 °F 64% 30.09 in 10.0 mi SW 3.5 mph - N/A   Mostly Cloudy
10:15 PM 45.5 °F - 32.5 °F 61% 30.09 in 10.0 mi Calm Calm - N/A   Scattered Clouds
10:35 PM 41.4 °F - 32.2 °F 70% 30.07 in 10.0 mi Calm Calm - N/A   Clear
10:55 PM 44.4 °F 42.0 °F 32.4 °F 63% 30.07 in 10.0 mi SW 4.6 mph - N/A   Clear
11:15 PM 40.1 °F - 32.0 °F 73% 30.07 in 10.0 mi Calm Calm - N/A   Clear
11:35 PM 44.1 °F 41.5 °F 32.0 °F 63% 30.07 in 10.0 mi WSW 4.6 mph - N/A   Clear
11:55 PM 43.5 °F 40.9 °F 32.0 °F 64% 30.07 in 10.0 mi West 4.6 mph - N/A   Clear